Regional Weather Roundup
Issued by NWS

Home | Current Version | Previous Version | Text Only | Print | Product List | Glossary Off
Versions: 1 2 3 4 5 6 7 8 9 10 11 12 13 14 15 16 17 18 19 20 21 22 23 24 25 26 27 28 29 30 31 32 33 34 35 36 37 38 39 40 41 42 43 44 45 46 47 48 49 50

000
ASUS43 KIND 200359
RWRIN

WEATHER ROUNDUP FOR INDIANA
NATIONAL WEATHER SERVICE INDIANAPOLIS IN
1100 PM EST SUN NOV 19 2017

NOTE: "FAIR" INDICATES FEW OR NO CLOUDS BELOW 12,000 FEET WITH NO
SIGNIFICANT WEATHER AND/OR OBSTRUCTIONS TO VISIBILITY.

* - STATION DOES NOT REPORT WEATHER SUCH AS PRECIPITATION OR FOG.

+ - STATION NOT QUALITY CONTROLLED BY THE NATIONAL WEATHER SERVICE.
    USE DATA WITH CAUTION...ESPECIALLY DEWPOINT AND RELATIVE
    HUMIDITY OBSERVATIONS.

INZ001>003-010>013-019-020-200500-
NORTHWEST INDIANA

CITY           SKY/WX    TMP DP  RH WIND       PRES   REMARKS
GARY /AIRPORT/ CLEAR     30  21  69 SW8       30.09F WCI  23
KNOX *+        CLEAR     28  23  80 W7        30.09S WCI  21
LA PORTE +     PTCLDY    28  21  74 W8        30.08S WCI  20
MONTICELLO +   CLEAR     28  22  77 W6        30.12S WCI  22

$$

LMZ046-743>745-200500-
SOUTHERN LAKE MICHIGAN

STATION/POSITION TIME  TEMP    WIND        PRES    WAVE
                       AIR SEA DIR/SP/G            HT
                 (UTC) (F)     (DEG/KT/KT) (MB)    (FT)
BURNS HARBOR     0340   32     230/  9/ 14 1019.3S
MICHIGAN CITY    0330   34     240/ 22/ 24   N/A

$$

INZ004-005-014>016-021>024-200500-
NORTH CENTRAL INDIANA

CITY           SKY/WX    TMP DP  RH WIND       PRES   REMARKS
GOSHEN         CLEAR     28  20  71 W12       30.06S WCI  18
PERU/GRISSOM   CLEAR     26  24  89 W8        30.10F WCI  18
SOUTH BEND     CLEAR     27  21  78 SW12      30.08R WCI  17
WARSAW +       CLEAR     28  21  74 W9        30.08S WCI  20

$$

INZ006>009-017-018-025>027-200500-
NORTHEAST INDIANA

CITY           SKY/WX    TMP DP  RH WIND       PRES   REMARKS
AUBURN +       CLEAR     30  21  69 W7        30.07R WCI  23
FORT WAYNE     CLEAR     30  24  78 W12       30.09R WCI  20
KENDALLVILLE + CLEAR     28  22  79 W12       30.05S WCI  18

$$

INZ028-029-035-036-043>045-051>053-200500-
WEST CENTRAL INDIANA

CITY           SKY/WX    TMP DP  RH WIND       PRES   REMARKS
CRAWFORDSVL +  CLEAR     26  23  88 SW5       30.11S WCI  20
LAFAYETTE      CLEAR     27  22  81 W3        30.15R
TERRE HAUTE    CLEAR     28  21  75 SW3       30.18S

$$

INZ030>032-037>040-046>048-054>057-064-065-200500-
CENTRAL INDIANA

CITY           SKY/WX    TMP DP  RH WIND       PRES   REMARKS
GREENWOOD *+   CLEAR     31  24  76 W5        30.16S WCI  26
INDIANAPOLIS   CLEAR     26  21  81 SW7       30.16R WCI  18
-EAGLE CREEK   CLEAR     29  21  72 CALM      30.14S
KOKOMO +       CLEAR     28  24  85 W8        30.12S WCI  20
MT COMFORT *+  CLEAR     27  25  93 SW5       30.14S WCI  21
SHELBYVILLE    CLEAR     27  21  78 SW6       30.15S WCI  20

$$

INZ033-034-041-042-049-050-058-059-200500-
EAST CENTRAL INDIANA

CITY           SKY/WX    TMP DP  RH WIND       PRES   REMARKS
MUNCIE         CLEAR     29  22  75 SW7       30.12R WCI  22
RICHMOND +     CLEAR     27  25  93 W9        30.13R WCI  17

$$

INZ060-061-067>069-081>083-085>088-200500-
SOUTHWEST INDIANA

CITY           SKY/WX    TMP DP  RH WIND       PRES   REMARKS
EVANSVILLE     CLEAR     29  24  82 CALM      30.24R
HUNTINGBURG +  CLEAR     28  23  81 CALM      30.23R

$$

INZ062-063-066-070>080-084-089>092-200500-
SOUTH CENTRAL AND SOUTHEAST INDIANA

CITY           SKY/WX    TMP DP  RH WIND       PRES   REMARKS
BLOOMINGTON    CLEAR     29  20  69 W5        30.17S WCI  24
MADISON *+     CLEAR     30  23  74 SW3       30.20S
SEYMOUR +      CLEAR     28  21  74 SW6       30.19S WCI  22

$$





USA.gov is the U.S. government's official web portal to all federal, state and local government web resources and services.